Stuttgart, AR

5:15 AM CST on November 21, 2017 (GMT -0600)
Stuttgart Municipal

Weather History for KSGT - November, 2013

Change the Weather History Date:

Saturday, November 23, 2013

  Actual Average Record
Temperature  
Mean Temperature 38 °F -  
Max Temperature 44 °F 57 °F 73 °F (2001)
Min Temperature 33 °F 40 °F 32 °F (2015)
Degree Days  
Heating Degree Days 26    
Moisture  
Dew Point 30 °F    
Average Humidity 68    
Maximum Humidity 87    
Minimum Humidity 45    
Precipitation  
Precipitation 0.07 in - - ()
Sea Level Pressure  
Sea Level Pressure 30.50 in    
Wind  
Wind Speed 18 mph (North)    
Max Wind Speed 26 mph    
Max Gust Speed 33 mph    
Visibility 9 miles    
Events      
Averages and records for this station are not official NWS values.
T = Trace of Precipitation, MM = Missing Value Source: NWS Daily Summary

Daily Weather History Graph

Daily Weather History Graph

Search for Another Location

Airport or City:

Trip Planner

Search our weather history database for the weather conditions in past years. The results will help you decide how hot, cold, wet, or windy it might be!

Date:

Astronomy

Nov. 23, 2013 Rise Set
Actual Time 6:47 AM CST 4:57 PM CST
Civil Twilight 6:20 AM CST 5:24 PM CST
Nautical Twilight 5:49 AM CST 5:55 PM CST
Astronomical Twilight 5:19 AM CST 6:25 PM CST
Moon 10:20 PM CST (11/23) 11:09 AM CST (11/23)
Length of Visible Light 11h 04m
Length of Day
10h 09m
Waning Gibbous, 69% of the Moon is Illuminated
Nov 23
Waning Gibbous
Nov 25
Last Quarter
Dec 2
New
Dec 9
First Quarter
Dec 17
Full

Hourly Weather History & Observations

Time (CST) Temp. Windchill Dew Point Humidity Pressure Visibility Wind Dir Wind Speed Gust Speed Precip Events Conditions
12:15 AM 42.8 °F 35.1 °F 37.4 °F 81% 30.42 in 10.0 mi North 16.1 mph 20.7 mph 0.01 in   Unknown
12:35 AM 42.8 °F 35.8 °F 37.4 °F 81% 30.43 in 6.0 mi North 13.8 mph 19.6 mph 0.02 in   Unknown
12:55 AM 41.0 °F 32.5 °F 37.4 °F 87% 30.42 in 6.0 mi North 17.3 mph - 0.02 in   Unknown
1:15 AM 41.0 °F 31.9 °F 35.6 °F 81% 30.42 in 7.0 mi North 19.6 mph 23.0 mph N/A   Unknown
1:35 AM 41.0 °F 32.2 °F 35.6 °F 81% 30.42 in 7.0 mi North 18.4 mph 24.2 mph 0.01 in   Unknown
1:55 AM 41.0 °F 31.9 °F 35.6 °F 81% 30.42 in 5.0 mi North 19.6 mph - 0.01 in   Unknown
2:15 AM 41.0 °F 31.9 °F 35.6 °F 81% 30.42 in 5.0 mi North 19.6 mph 24.2 mph 0.01 in   Unknown
2:35 AM 39.2 °F 30.2 °F 35.6 °F 87% 30.42 in 9.0 mi North 17.3 mph 25.3 mph 0.01 in   Unknown
2:55 AM 39.2 °F 29.0 °F 35.6 °F 87% 30.41 in 8.0 mi North 21.9 mph - 0.01 in   Unknown
3:15 AM 39.2 °F 29.3 °F 35.6 °F 87% 30.42 in 8.0 mi North 20.7 mph 26.5 mph N/A   Unknown
3:35 AM 39.2 °F 29.0 °F 35.6 °F 87% 30.42 in 7.0 mi North 21.9 mph 26.5 mph 0.01 in   Unknown
3:55 AM 39.2 °F 30.2 °F 35.6 °F 87% 30.42 in 5.0 mi North 17.3 mph 21.9 mph 0.02 in   Unknown
4:15 AM 39.2 °F 29.3 °F 35.6 °F 87% 30.42 in 5.0 mi North 20.7 mph 28.8 mph 0.01 in   Unknown
4:35 AM 39.2 °F 29.8 °F 35.6 °F 87% 30.42 in 5.0 mi North 18.4 mph 27.6 mph 0.01 in   Unknown
4:55 AM 39.2 °F 29.3 °F 35.6 °F 87% 30.43 in 7.0 mi North 20.7 mph - 0.01 in   Unknown
5:15 AM 39.2 °F 29.8 °F 35.6 °F 87% 30.43 in 9.0 mi NNE 18.4 mph - N/A   Unknown
5:35 AM 39.2 °F 30.2 °F 35.6 °F 87% 30.44 in 10.0 mi North 17.3 mph - N/A   Unknown
5:55 AM 39.2 °F 29.3 °F 33.8 °F 81% 30.45 in 10.0 mi North 20.7 mph 27.6 mph N/A   Unknown
6:15 AM 39.2 °F 29.8 °F 33.8 °F 81% 30.46 in 10.0 mi North 18.4 mph - N/A   Unknown
6:35 AM 39.2 °F 29.3 °F 33.8 °F 81% 30.46 in 9.0 mi North 20.7 mph 25.3 mph N/A   Unknown
6:55 AM 39.2 °F 29.0 °F 33.8 °F 81% 30.47 in 10.0 mi North 21.9 mph 26.5 mph N/A   Unknown
7:15 AM 39.2 °F 29.3 °F 33.8 °F 81% 30.48 in 10.0 mi North 20.7 mph - N/A   Unknown
7:35 AM 39.2 °F 29.6 °F 33.8 °F 81% 30.49 in 10.0 mi North 19.6 mph - N/A   Unknown
7:55 AM 39.2 °F 30.2 °F 33.8 °F 81% 30.50 in 10.0 mi North 17.3 mph 23.0 mph N/A   Unknown
8:15 AM 39.2 °F 28.5 °F 33.8 °F 81% 30.50 in 10.0 mi North 24.2 mph - N/A   Unknown
8:35 AM 39.2 °F 29.3 °F 33.8 °F 81% 30.51 in 10.0 mi North 20.7 mph 25.3 mph N/A   Unknown
8:55 AM 39.2 °F 29.8 °F 33.8 °F 81% 30.51 in 10.0 mi NNE 18.4 mph 24.2 mph N/A   Unknown
9:15 AM 39.2 °F 29.0 °F 33.8 °F 81% 30.52 in 10.0 mi North 21.9 mph 29.9 mph N/A   Unknown
9:35 AM 41.0 °F 31.9 °F 33.8 °F 76% 30.52 in 10.0 mi NNE 19.6 mph - N/A   Unknown
9:55 AM 41.0 °F 31.1 °F 33.8 °F 76% 30.52 in 10.0 mi North 23.0 mph - N/A   Unknown
10:15 AM 42.8 °F 34.0 °F 33.8 °F 70% 30.52 in 10.0 mi North 20.7 mph 26.5 mph N/A   Unknown
10:35 AM 41.0 °F 31.9 °F 33.8 °F 76% 30.53 in 10.0 mi North 19.6 mph 25.3 mph N/A   Unknown
10:55 AM 42.8 °F 34.0 °F 33.8 °F 70% 30.52 in 10.0 mi North 20.7 mph 25.3 mph N/A   Unknown
11:15 AM 41.0 °F 32.2 °F 32.0 °F 70% 30.52 in 10.0 mi North 18.4 mph 27.6 mph N/A   Unknown
11:35 AM 41.0 °F 31.6 °F 32.0 °F 70% 30.51 in 10.0 mi North 20.7 mph 25.3 mph N/A   Unknown
11:55 AM 42.8 °F 34.5 °F 32.0 °F 66% 30.50 in 10.0 mi North 18.4 mph 24.2 mph N/A   Unknown
12:15 PM 42.8 °F 34.0 °F 32.0 °F 66% 30.50 in 10.0 mi North 20.7 mph 24.2 mph N/A   Unknown
12:35 PM 42.8 °F 34.3 °F 32.0 °F 66% 30.49 in 10.0 mi North 19.6 mph - N/A   Unknown
12:55 PM 44.6 °F 36.4 °F 32.0 °F 61% 30.49 in 10.0 mi North 20.7 mph 24.2 mph N/A   Unknown
1:15 PM 44.6 °F 36.6 °F 30.2 °F 57% 30.49 in 10.0 mi North 19.6 mph 24.2 mph N/A   Unknown
1:35 PM 44.6 °F 36.4 °F 28.4 °F 53% 30.51 in 10.0 mi North 20.7 mph 25.3 mph N/A   Unknown
1:55 PM 44.6 °F 36.1 °F 28.4 °F 53% 30.51 in 10.0 mi NNE 21.9 mph - N/A   Unknown
2:15 PM 44.6 °F 36.4 °F 26.6 °F 49% 30.50 in 10.0 mi NNE 20.7 mph 28.8 mph N/A   Unknown
2:35 PM 44.6 °F 36.9 °F 28.4 °F 53% 30.50 in 10.0 mi NNE 18.4 mph 21.9 mph N/A   Unknown
2:55 PM 44.6 °F 36.4 °F 26.6 °F 49% 30.50 in 10.0 mi NNE 20.7 mph 24.2 mph N/A   Unknown
3:15 PM 44.6 °F 36.4 °F 28.4 °F 53% 30.50 in 10.0 mi North 20.7 mph - N/A   Unknown
3:35 PM 44.6 °F 37.2 °F 28.4 °F 53% 30.51 in 10.0 mi North 17.3 mph - N/A   Unknown
3:55 PM 44.6 °F 37.2 °F 28.4 °F 53% 30.52 in 10.0 mi North 17.3 mph - N/A   Unknown
4:15 PM 44.6 °F 37.4 °F 26.6 °F 49% 30.52 in 10.0 mi NNE 16.1 mph - N/A   Unknown
4:35 PM 44.6 °F 38.1 °F 26.6 °F 49% 30.52 in 10.0 mi NNE 13.8 mph - N/A   Unknown
4:55 PM 44.6 °F 38.1 °F 26.6 °F 49% 30.52 in 10.0 mi NNE 13.8 mph - N/A   Unknown
5:15 PM 42.8 °F 35.8 °F 24.8 °F 49% 30.52 in 10.0 mi North 13.8 mph - N/A   Unknown
5:35 PM 42.8 °F 35.4 °F 24.8 °F 49% 30.53 in 10.0 mi North 15.0 mph - N/A   Unknown
5:55 PM 41.0 °F 33.5 °F 21.2 °F 45% 30.53 in 10.0 mi North 13.8 mph - N/A   Unknown
6:15 PM 39.2 °F 31.6 °F 24.8 °F 56% 30.54 in 10.0 mi North 12.7 mph - N/A   Unknown
6:35 PM 39.2 °F 32.5 °F 23.0 °F 52% 30.54 in 10.0 mi North 10.4 mph - N/A   Unknown
6:55 PM 39.2 °F 33.6 °F 24.8 °F 56% 30.55 in 10.0 mi North 8.1 mph - N/A   Unknown
7:15 PM 37.4 °F 31.4 °F 24.8 °F 60% 30.55 in 10.0 mi North 8.1 mph - N/A   Unknown
7:35 PM 37.4 °F 32.1 °F 24.8 °F 60% 30.55 in 10.0 mi North 6.9 mph - N/A   Unknown
7:55 PM 37.4 °F 32.1 °F 24.8 °F 60% 30.55 in 10.0 mi NNW 6.9 mph - N/A   Unknown
8:15 PM 37.4 °F 30.3 °F 26.6 °F 65% 30.54 in 10.0 mi North 10.4 mph - N/A   Unknown
8:35 PM 37.4 °F 28.9 °F 24.8 °F 60% 30.54 in 10.0 mi North 13.8 mph - N/A   Unknown
8:55 PM 37.4 °F 27.8 °F 24.8 °F 60% 30.55 in 10.0 mi North 17.3 mph - N/A   Unknown
9:15 PM 39.2 °F 29.3 °F 23.0 °F 52% 30.55 in 10.0 mi North 20.7 mph 25.3 mph N/A   Unknown
9:35 PM 37.4 °F 26.9 °F 24.8 °F 60% 30.55 in 10.0 mi NNE 20.7 mph 25.3 mph N/A   Unknown
9:55 PM 37.4 °F 25.6 °F 24.8 °F 60% 30.56 in 10.0 mi NNE 26.5 mph 31.1 mph N/A   Unknown
10:15 PM 35.6 °F - 21.2 °F 56% 30.56 in 10.0 mi North - - N/A   Unknown
10:35 PM 35.6 °F 23.2 °F 19.4 °F 52% 30.57 in 10.0 mi NNE 26.5 mph 33.4 mph N/A   Unknown
10:55 PM 35.6 °F 24.8 °F 19.4 °F 52% 30.58 in 10.0 mi NNE 19.6 mph 29.9 mph N/A   Clear
11:15 PM 33.8 °F 22.2 °F 17.6 °F 52% 30.59 in 10.0 mi NNE 20.7 mph 25.3 mph N/A   Unknown
11:35 PM 33.8 °F 22.2 °F 19.4 °F 56% 30.59 in 10.0 mi NNE 20.7 mph 24.2 mph N/A   Clear
11:55 PM 33.8 °F 21.6 °F 15.8 °F 48% 30.59 in 10.0 mi NNE 23.0 mph 26.5 mph N/A   Clear